Date String (YYYY-MM-DD hh:mm:ss) UTC,Instrument flags,Ambient pressure (hPa),Sample flow (lpm),Bypass flow (lpm),Sample temperature (°C),Ambient temperature (°C),ASC tube jacket temperature (°C),LED temperature (°C),Box temperature (°C),Sample RH (%),Span deviation,Mass concentration (μg/m³),Mass concentration (μg/m³),Mass concentration (μg/m³)
DateTimeUTC,F1_M11,P_M11,Q1_M11,Q2_M11,T1_M11,T2_M11,T3_M11,T4_M11,T5_M11,U1_M11,ZSPAN_M11,X0_M11,X2_M11,X1_M11
2022-06-22 18:00:00,,0832.8,5.00,0.00,28.9,27.3,00.0,37.7,30.8,15.7,0000.0,0013.38,0004.04,0002.69
2022-06-22 18:01:00,,0832.7,5.01,0.00,28.9,27.4,00.0,37.7,30.8,15.5,0000.0,0012.98,0004.00,0002.65
2022-06-22 18:02:00,,0832.8,4.99,0.00,29.0,27.6,00.0,37.7,30.9,15.7,0000.0,0013.31,0003.94,0002.62
2022-06-22 18:03:00,,0832.8,5.00,0.00,29.0,27.8,00.0,37.7,30.9,15.4,0000.0,0014.02,0003.89,0002.58
2022-06-22 18:04:00,,0832.8,5.01,0.00,29.0,27.9,00.0,37.7,31.0,15.4,0000.0,0015.34,0003.81,0002.52
2022-06-22 18:05:00,,0832.8,4.99,0.00,29.0,28.0,00.0,37.8,31.0,16.0,0000.0,0016.69,0003.78,0002.49
2022-06-22 18:06:00,,0832.7,5.01,0.00,29.1,28.1,00.0,37.8,31.1,15.8,0000.0,0017.94,0003.80,0002.49
2022-06-22 18:07:00,,0832.8,5.00,0.00,29.1,28.2,00.0,37.8,31.1,15.2,0000.0,0018.05,0003.82,0002.47
2022-06-22 18:08:00,,0832.8,4.99,0.00,29.1,28.3,00.0,37.8,31.1,15.0,0000.0,0017.92,0003.77,0002.46
2022-06-22 18:09:00,,0832.7,5.01,0.00,29.2,28.1,00.0,37.8,31.1,14.6,0000.0,0018.69,0003.83,0002.47
2022-06-22 18:10:00,,0832.7,4.99,0.00,29.1,27.3,00.0,37.7,30.9,15.6,0000.0,0019.18,0003.90,0002.50
2022-06-22 18:11:00,,0832.8,4.99,0.00,29.0,26.9,00.0,37.7,30.8,15.9,0000.0,0019.14,0003.94,0002.51
2022-06-22 18:12:00,,0832.8,5.00,0.00,29.0,26.9,00.0,37.7,30.7,15.4,0000.0,0019.13,0003.94,0002.54
2022-06-22 18:13:00,,0832.8,5.00,0.00,28.9,27.0,00.0,37.7,30.7,15.4,0000.0,0018.62,0003.95,0002.55
2022-06-22 18:14:00,,0832.8,5.01,0.00,28.9,27.1,00.0,37.7,30.7,16.0,0000.0,0018.07,0004.02,0002.57
2022-06-22 18:15:00,,0832.8,4.98,0.00,28.9,27.3,00.0,37.7,30.8,16.2,0000.0,0016.34,0004.10,0002.60
2022-06-22 18:16:00,,0832.8,5.00,0.00,28.9,27.4,00.0,37.7,30.8,15.7,0000.0,0014.99,0004.12,0002.61
2022-06-22 18:17:00,,0832.8,5.00,0.00,28.9,27.6,00.0,37.7,30.9,16.0,0000.0,0013.75,0004.11,0002.62
2022-06-22 18:18:00,,0832.8,5.00,0.00,29.0,27.7,00.0,37.7,30.9,16.5,0000.0,0013.52,0004.09,0002.63
2022-06-22 18:19:00,,0832.8,5.01,0.00,29.0,27.9,00.0,37.7,30.9,16.3,0000.0,0013.51,0004.15,0002.65
2022-06-22 18:20:00,,0832.8,4.99,0.00,29.0,28.0,00.0,37.7,31.0,16.1,0000.0,0012.94,0004.17,0002.67
2022-06-22 18:21:00,,0832.7,5.00,0.00,29.1,28.1,00.0,37.8,31.0,16.4,0000.0,0013.03,0004.15,0002.66
2022-06-22 18:22:00,,0832.8,5.01,0.00,29.1,28.2,00.0,37.8,31.1,16.6,0000.0,0014.43,0004.14,0002.65
2022-06-22 18:23:00,,0832.7,5.00,0.00,29.1,28.3,00.0,37.8,31.1,16.6,0000.0,0014.72,0004.16,0002.64
2022-06-22 18:24:00,,0832.7,5.00,0.00,29.1,28.0,00.0,37.8,31.1,16.8,0000.0,0015.96,0004.22,0002.66
2022-06-22 18:25:00,,0832.7,5.01,0.00,29.1,27.2,00.0,37.7,30.8,16.5,0000.0,0016.93,0004.26,0002.67
2022-06-22 18:26:00,,0832.7,5.00,0.00,29.0,26.8,00.0,37.7,30.7,16.7,0000.0,0017.52,0004.24,0002.67
2022-06-22 18:27:00,,0832.7,5.00,0.00,29.0,26.8,00.0,37.7,30.7,16.9,0000.0,0018.48,0004.19,0002.68
2022-06-22 18:28:00,,0832.7,5.00,0.00,28.9,26.9,00.0,37.7,30.7,16.5,0000.0,0018.18,0004.24,0002.69
2022-06-22 18:29:00,,0832.7,5.00,0.00,28.9,27.1,00.0,37.7,30.7,16.5,0000.0,0018.31,0004.34,0002.70
2022-06-22 18:30:00,,0832.7,4.99,0.00,28.9,27.3,00.0,37.7,30.8,16.4,0000.0,0018.42,0004.36,0002.69
2022-06-22 18:31:00,,0832.7,5.00,0.00,28.9,27.4,00.0,37.7,30.8,16.5,0000.0,0018.46,0004.32,0002.68
2022-06-22 18:32:00,,0832.7,5.01,0.00,28.9,27.6,00.0,37.7,30.8,16.4,0000.0,0018.81,0004.31,0002.69
2022-06-22 18:33:00,,0832.7,5.00,0.00,29.0,27.7,00.0,37.7,30.9,16.7,0000.0,0017.90,0004.37,0002.71
2022-06-22 18:34:00,,0832.7,4.98,0.00,29.0,27.9,00.0,37.7,30.9,16.8,0000.0,0018.52,0004.35,0002.71
2022-06-22 18:35:00,,0832.7,5.01,0.00,29.0,28.0,00.0,37.7,31.0,16.9,0000.0,0019.80,0004.33,0002.70
2022-06-22 18:36:00,,0832.7,5.01,0.00,29.0,28.1,00.0,37.7,31.0,17.2,0000.0,0019.80,0004.29,0002.69
2022-06-22 18:37:00,,0832.6,5.00,0.00,29.1,28.2,00.0,37.8,31.1,17.5,0000.0,0020.45,0004.30,0002.68
2022-06-22 18:38:00,,0832.7,5.00,0.00,29.1,28.3,00.0,37.8,31.1,17.5,0000.0,0020.74,0004.32,0002.65
2022-06-22 18:39:00,,0832.7,5.00,0.00,29.2,28.3,00.0,37.8,31.1,17.4,0000.0,0022.37,0004.30,0002.64
2022-06-22 18:40:00,,0832.6,5.00,0.00,29.1,27.6,00.0,37.8,30.9,17.4,0000.0,0022.43,0004.26,0002.64
2022-06-22 18:41:00,,0832.6,5.00,0.00,29.0,27.0,00.0,37.7,30.8,16.8,0000.0,0022.21,0004.25,0002.66
2022-06-22 18:42:00,,0832.5,5.01,0.00,29.0,26.9,00.0,37.7,30.7,16.4,0000.0,0024.14,0004.31,0002.66
2022-06-22 18:43:00,,0832.5,4.99,0.00,29.0,26.9,00.0,37.7,30.7,16.3,0000.0,0024.30,0004.31,0002.64
2022-06-22 18:44:00,,0832.5,5.00,0.00,28.9,27.1,00.0,37.7,30.8,16.2,0000.0,0023.68,0004.30,0002.63
2022-06-22 18:45:00,,0832.5,5.01,0.00,28.9,27.2,00.0,37.7,30.8,15.9,0000.0,0022.74,0004.37,0002.64
2022-06-22 18:46:00,,0832.4,5.00,0.00,28.9,27.4,00.0,37.7,30.8,16.1,0000.0,0021.32,0004.38,0002.63
2022-06-22 18:47:00,,0832.4,4.99,0.00,28.9,27.6,00.0,37.7,30.9,18.1,0000.0,0020.98,0004.40,0002.65
2022-06-22 18:48:00,,0832.5,4.99,0.00,29.0,27.7,00.0,37.7,30.9,17.9,0000.0,0019.89,0004.37,0002.69
2022-06-22 18:49:00,,0832.5,5.00,0.00,29.0,27.9,00.0,37.7,31.0,16.3,0000.0,0019.46,0004.40,0002.73
2022-06-22 18:50:00,,0832.5,5.00,0.00,29.0,28.0,00.0,37.8,31.0,16.2,0000.0,0018.14,0004.42,0002.75
2022-06-22 18:51:00,,0832.5,5.00,0.00,29.1,28.1,00.0,37.8,31.1,16.2,0000.0,0017.79,0004.40,0002.77
2022-06-22 18:52:00,,0832.5,5.00,0.00,29.1,28.2,00.0,37.8,31.1,16.3,0000.0,0018.43,0004.41,0002.78
2022-06-22 18:53:00,,0832.5,4.99,0.00,29.1,28.3,00.0,37.8,31.1,16.2,0000.0,0016.18,0004.36,0002.80
2022-06-22 18:54:00,,0832.4,5.00,0.00,29.1,27.9,00.0,37.8,31.1,16.3,0000.0,0016.39,0004.38,0002.83
2022-06-22 18:55:00,,0832.4,5.00,0.00,29.1,27.1,00.0,37.7,30.8,16.8,0000.0,0017.75,0004.34,0002.85
2022-06-22 18:56:00,,0832.4,4.99,0.00,29.0,26.8,00.0,37.7,30.7,17.2,0000.0,0017.77,0004.34,0002.87
2022-06-22 18:57:00,,0832.4,5.01,0.00,29.0,26.8,00.0,37.7,30.7,17.3,0000.0,0017.06,0004.38,0002.92
2022-06-22 18:58:00,,0832.4,5.00,0.00,28.9,27.0,00.0,37.7,30.7,17.5,0000.0,0015.74,0004.36,0002.94
2022-06-22 18:59:00,,0832.4,5.00,0.00,28.9,27.1,00.0,37.7,30.8,18.4,0000.0,0016.24,0004.34,0002.95
